Flag for Portugal

Past Weather in 32°38'31.9"N, 16°54'28.0"W, Portugal — Yesterday and Last 2 Weeks

Currently: 73 °F. Passing clouds. (Weather station: Aeroporto Da Madeira, Portugal). See more current weather

Past Weather in 32°38'31.9"N, 16°54'28.0"W — Graph

°F

32°38'31.9"N, 16°54'28.0"W Temperature Yesterday

Maximum temperature yesterday: 79 °F (at 2:30 pm)
Minimum temperature yesterday: 70 °F (at 6:30 am)
Average temperature yesterday: 74 °F

High & Low Weather Summary for the Past Weeks

 TemperatureHumidityPressure
High84 °F (Jul 11, 3:00 pm)88% (Jul 11, 4:30 am)30.27 "Hg (Jul 11, 4:30 am)
Low64 °F (Jul 16, 6:30 am)32% (Jul 12, 1:30 am)29.92 "Hg (Jul 10, 6:30 pm)
Average72 °F68%30.09 "Hg
* Reported Jul 9 8:30 pm — Jul 24 8:30 pm, 32°38'31.9"N, 16°54'28.0"W. Weather by CustomWeather, © 2021

Note: Actual official high and low records may vary slightly from our data, if they occured in-between our weather recording intervals... More about our weather records

32°38'31.9"N, 16°54'28.0"W Weather History for the Previous 24 Hours

Scroll right to see more
 ConditionsComfort  
Time TempWeatherWind HumidityBarometerVisibility
8:30 pm
Sat, Jul 24
73 °FPassing clouds.16 mph61%30.07 "HgN/A
7:30 pm75 °FPassing clouds.18 mph57%30.07 "HgN/A
7:00 pm77 °FPassing clouds.18 mph57%30.07 "HgN/A
6:30 pm77 °FPassing clouds.24 mph57%30.07 "HgN/A
6:00 pm79 °FPassing clouds.26 mph51%30.07 "HgN/A
5:30 pm79 °FPassing clouds.25 mph51%30.07 "HgN/A
5:00 pm79 °FPassing clouds.25 mph54%30.04 "HgN/A
4:30 pm79 °FPassing clouds.23 mph51%30.07 "HgN/A
4:00 pm79 °FPassing clouds.23 mph51%30.07 "HgN/A
3:30 pm77 °FPassing clouds.16 mph61%30.07 "HgN/A
3:00 pm81 °FPassing clouds.21 mph48%30.07 "HgN/A
2:30 pm79 °FPassing clouds.16 mph54%30.07 "HgN/A
1:30 pm79 °FPassing clouds.20 mph58%30.09 "HgN/A
1:00 pm79 °FPassing clouds.17 mph54%30.09 "HgN/A
12:30 pm79 °FPassing clouds.21 mph54%30.09 "HgN/A
12:00 pm77 °FPassing clouds.22 mph54%30.07 "HgN/A
11:30 am77 °FPassing clouds.20 mph54%30.07 "HgN/A
11:00 am75 °FPassing clouds.22 mph57%30.07 "HgN/A
10:30 am73 °FPassing clouds.17 mph61%30.07 "HgN/A
10:00 am73 °FPassing clouds.13 mph61%30.09 "HgN/A
9:30 am73 °FPassing clouds.16 mph61%30.09 "HgN/A
9:00 am72 °FPassing clouds.14 mph65%30.07 "HgN/A
8:30 am70 °FPassing clouds.16 mph69%30.07 "HgN/A
8:00 am70 °FPassing clouds.13 mph69%30.07 "HgN/A
7:30 am70 °FPassing clouds.13 mph73%30.07 "HgN/A
7:00 am70 °FPassing clouds.14 mph73%30.07 "HgN/A
6:30 am70 °FPassing clouds.16 mph73%30.07 "HgN/A
6:00 am70 °FPassing clouds.13 mph73%30.07 "HgN/A
5:30 am70 °FPassing clouds.16 mph73%30.07 "HgN/A
5:00 am70 °FPassing clouds.14 mph69%30.07 "HgN/A
4:30 am72 °FPassing clouds.14 mph61%30.07 "HgN/A
4:00 am72 °FPassing clouds.13 mph61%30.07 "HgN/A
3:30 am70 °FPassing clouds.14 mph69%30.07 "HgN/A
3:00 am72 °FPassing clouds.10 mph65%30.07 "HgN/A
2:30 am70 °FPassing clouds.12 mph69%30.09 "HgN/A
2:00 am70 °FPassing clouds.16 mph69%30.09 "HgN/A
1:30 am72 °FPassing clouds.14 mph69%30.09 "HgN/A
1:00 am70 °FPassing clouds.13 mph73%30.09 "HgN/A
12:30 am72 °FPassing clouds.10 mph69%30.09 "HgN/A
12:00 am72 °FPassing clouds.12 mph69%30.09 "HgN/A
11:30 pm
Fri, Jul 23
72 °FPassing clouds.12 mph65%30.09 "HgN/A
11:00 pm72 °FPassing clouds.9 mph65%30.09 "HgN/A
10:30 pm72 °FPassing clouds.16 mph69%30.09 "HgN/A
10:00 pm72 °FPassing clouds.16 mph65%30.07 "HgN/A
9:30 pm72 °FPassing clouds.18 mph69%30.07 "HgN/A
9:00 pm72 °FPassing clouds.20 mph69%30.07 "HgN/A
Weather by CustomWeather, © 2021

See weather overview